Spartanburg, SC

3:17 PM EST on February 08, 2016 (GMT -0500)
Spartanburg Downtown Memorial

Weather History for KSPA - March, 2012

Change the Weather History Date:

Thursday, March 22, 2012

  Actual Average (KGSP) Record (KGSP)
Temperature  
Mean Temperature 68 °F 54 °F  
Max Temperature 75 °F 66 °F 85 °F (1935)
Min Temperature 60 °F 43 °F 20 °F (1906)
Degree Days  
Heating Degree Days 0 11  
Month to date heating degree days 297  
Since 1 July heating degree days 2746  
Cooling Degree Days 2 0  
Month to date cooling degree days 0  
Year to date cooling degree days 0  
Growing Degree Days 18 (Base 50)    
Moisture  
Dew Point 63 °F    
Average Humidity 88    
Maximum Humidity 100    
Minimum Humidity 65    
Precipitation  
Precipitation 0.01 in 0.14 in 1.17 in (1953)
Month to date precipitation 3.24  
Year to date precipitation 11.03  
Snow  
Snow 0.00 in 0.00 in 0.50 in (1914)
Month to date snowfall 0.7  
Since 1 July snowfall 4.5  
Snow Depth -    
Sea Level Pressure  
Sea Level Pressure 30.23 in    
Wind  
Wind Speed 2 mph (SSW)    
Max Wind Speed 12 mph    
Max Gust Speed 16 mph    
Visibility 8 miles    
Events Fog , Rain    
T = Trace of Precipitation, MM = Missing Value Source: NWS Daily Summary

Daily Weather History Graph

Daily Weather History Graph

Search for Another Location

Airport or City:

Trip Planner

Search our weather history database for the weather conditions in past years. The results will help you decide how hot, cold, wet, or windy it might be!

Date:

Astronomy

Mar. 22, 2012 Rise Set
Actual Time 7:28 AM EDT 7:41 PM EDT
Civil Twilight 7:02 AM EDT 8:06 PM EDT
Nautical Twilight 6:33 AM EDT 8:36 PM EDT
Astronomical Twilight 6:03 AM EDT 9:06 PM EDT
Moon 7:08 AM EDT (3/22) 8:01 PM EDT (3/22)
Length of Visible Light 13h 04m
Length of Day
12h 13m
New Moon, 0% of the Moon is Illuminated
Mar 22
New Moon
Mar 30
First Quarter
Apr 6
Full
Apr 13
Last Quarter
Apr 21
New

Hourly Weather History & Observations

Time (EDT) Temp. Dew Point Humidity Pressure Visibility Wind Dir Wind Speed Gust Speed Precip Events Conditions
12:15 AM 66.2 °F 62.6 °F 88% 30.24 in 10.0 mi SSE 3.5 mph - N/A   Clear
12:35 AM 66.2 °F 62.6 °F 88% 30.24 in 10.0 mi SE 3.5 mph - N/A   Clear
12:55 AM 64.4 °F 62.6 °F 94% 30.25 in 10.0 mi SE 3.5 mph - N/A   Clear
1:15 AM 64.4 °F 62.6 °F 94% 30.25 in 10.0 mi Calm Calm - N/A   Mostly Cloudy
1:35 AM 64.4 °F 62.6 °F 94% 30.25 in 10.0 mi Calm Calm - N/A   Mostly Cloudy
2:15 AM 64.4 °F 62.6 °F 94% 30.25 in 10.0 mi Calm Calm - N/A   Clear
2:35 AM 62.6 °F 62.6 °F 100% 30.25 in 10.0 mi Calm Calm - N/A   Clear
2:55 AM 62.6 °F 62.6 °F 100% 30.25 in 10.0 mi Calm Calm - N/A   Clear
3:15 AM 60.8 °F 60.8 °F 100% 30.24 in 10.0 mi Calm Calm - N/A   Clear
3:35 AM 60.8 °F 60.8 °F 100% 30.24 in 10.0 mi Calm Calm - N/A   Clear
3:55 AM 60.8 °F 60.8 °F 100% 30.24 in 7.0 mi Calm Calm - N/A   Clear
4:15 AM 60.8 °F 60.8 °F 100% 30.24 in 10.0 mi Calm Calm - N/A   Clear
4:35 AM 60.8 °F 60.8 °F 100% 30.24 in 10.0 mi Calm Calm - N/A   Clear
4:55 AM 60.8 °F 60.8 °F 100% 30.23 in 10.0 mi Calm Calm - N/A   Clear
5:15 AM 60.8 °F 60.8 °F 100% 30.23 in 7.0 mi ENE 3.5 mph - N/A   Scattered Clouds
5:35 AM 60.8 °F 60.8 °F 100% 30.22 in 7.0 mi Calm Calm - N/A   Scattered Clouds
5:55 AM 60.8 °F 60.8 °F 100% 30.22 in 7.0 mi Calm Calm - N/A   Mostly Cloudy
6:15 AM 60.8 °F 60.8 °F 100% 30.22 in 7.0 mi Calm Calm - N/A   Overcast
6:35 AM 62.6 °F 62.6 °F 100% 30.22 in 7.0 mi East 3.5 mph - N/A   Overcast
6:55 AM 62.6 °F 62.6 °F 100% 30.23 in 7.0 mi Calm Calm - N/A   Overcast
7:15 AM 62.6 °F 62.6 °F 100% 30.23 in 5.0 mi Calm Calm - N/A   Overcast
7:35 AM 62.6 °F 62.6 °F 100% 30.23 in 2.5 mi East 3.5 mph - N/A   Overcast
7:55 AM 62.6 °F 62.6 °F 100% 30.24 in 1.5 mi East 3.5 mph - N/A   Overcast
8:15 AM 62.6 °F 62.6 °F 100% 30.24 in 0.5 mi Calm Calm - N/A Fog Fog
8:35 AM 62.6 °F 62.6 °F 100% 30.25 in 0.2 mi Calm Calm - N/A Fog Fog
8:55 AM 62.6 °F 62.6 °F 100% 30.25 in 1.8 mi Calm Calm - N/A   Overcast
9:15 AM 62.6 °F 62.6 °F 100% 30.25 in 2.5 mi Calm Calm - N/A   Overcast
9:55 AM 64.4 °F 64.4 °F 100% 30.26 in 7.0 mi Calm Calm - N/A   Mostly Cloudy
10:15 AM 66.2 °F 64.4 °F 94% 30.27 in 10.0 mi Calm Calm - N/A   Mostly Cloudy
10:35 AM 68.0 °F 64.4 °F 88% 30.27 in 10.0 mi Calm Calm - N/A   Scattered Clouds
10:55 AM 69.8 °F 66.2 °F 88% 30.27 in 10.0 mi Calm Calm - N/A   Mostly Cloudy
11:15 AM 71.6 °F 66.2 °F 83% 30.27 in 10.0 mi SW 3.5 mph - N/A   Mostly Cloudy
11:35 AM 71.6 °F 64.4 °F 78% 30.27 in 10.0 mi WSW 3.5 mph - N/A   Overcast
11:55 AM 73.4 °F 64.4 °F 73% 30.26 in 10.0 mi Calm Calm - N/A   Mostly Cloudy
12:15 PM 73.4 °F 64.4 °F 73% 30.26 in 10.0 mi SSW 3.5 mph - N/A   Mostly Cloudy
12:35 PM 75.2 °F 64.4 °F 69% 30.26 in 10.0 mi South 3.5 mph - N/A   Scattered Clouds
12:55 PM 75.2 °F 64.4 °F 69% 30.25 in 10.0 mi Calm Calm - N/A   Scattered Clouds
1:15 PM 75.2 °F 62.6 °F 65% 30.24 in 10.0 mi SW 4.6 mph - N/A   Scattered Clouds
1:35 PM 75.2 °F 62.6 °F 65% 30.23 in 10.0 mi SW 5.8 mph - N/A   Mostly Cloudy
1:55 PM 73.4 °F 62.6 °F 69% 30.23 in 10.0 mi WSW 11.5 mph 16.1 mph N/A   Overcast
2:15 PM 69.8 °F 64.4 °F 83% 30.23 in 10.0 mi WSW 8.1 mph - N/A Rain Light Rain
2:35 PM 68.0 °F 66.2 °F 94% 30.22 in 5.0 mi WNW 6.9 mph - 0.01 in Rain Rain
2:55 PM 69.8 °F 66.2 °F 88% 30.21 in 10.0 mi WNW 5.8 mph - 0.01 in   Scattered Clouds
3:15 PM 71.6 °F 66.2 °F 83% 30.20 in 10.0 mi West 6.9 mph - N/A   Mostly Cloudy
3:35 PM 73.4 °F 64.4 °F 73% 30.20 in 10.0 mi WSW 6.9 mph - N/A   Scattered Clouds
3:55 PM 71.6 °F 64.4 °F 78% 30.19 in 10.0 mi SSW 5.8 mph - N/A   Mostly Cloudy
4:15 PM 69.8 °F 64.4 °F 83% 30.19 in 7.0 mi SW 3.5 mph - N/A Rain Light Rain
4:35 PM 69.8 °F 66.2 °F 88% 30.19 in 10.0 mi Calm Calm - N/A   Light Drizzle
4:55 PM 69.8 °F 66.2 °F 88% 30.18 in 10.0 mi Calm Calm - N/A   Scattered Clouds
5:15 PM 71.6 °F 64.4 °F 78% 30.17 in 10.0 mi Calm Calm - N/A   Clear
5:35 PM 71.6 °F 64.4 °F 78% 30.17 in 10.0 mi Calm Calm - N/A   Scattered Clouds
5:55 PM 71.6 °F 64.4 °F 78% 30.16 in 10.0 mi Calm Calm - N/A   Scattered Clouds
6:15 PM 73.4 °F 64.4 °F 73% 30.16 in 10.0 mi Calm Calm - N/A   Scattered Clouds
6:35 PM 73.4 °F 62.6 °F 69% 30.16 in 10.0 mi Calm Calm - N/A   Mostly Cloudy
6:55 PM 71.6 °F 62.6 °F 73% 30.16 in 10.0 mi Calm Calm - N/A   Mostly Cloudy
7:15 PM 71.6 °F 62.6 °F 73% 30.16 in 10.0 mi Calm Calm - N/A   Mostly Cloudy
7:35 PM 69.8 °F 64.4 °F 83% 30.16 in 10.0 mi Calm Calm - N/A   Scattered Clouds
7:55 PM 68.0 °F 64.4 °F 88% 30.17 in 10.0 mi Calm Calm - N/A   Clear
8:15 PM 68.0 °F 64.4 °F 88% 30.17 in 10.0 mi Calm Calm - N/A   Clear
8:55 PM 68.0 °F 64.4 °F 88% 30.16 in 10.0 mi Calm Calm - N/A   Clear
9:15 PM 64.4 °F 64.4 °F 100% 30.17 in 10.0 mi Calm Calm - N/A   Clear
9:35 PM 66.2 °F 64.4 °F 94% 30.17 in 10.0 mi Calm Calm - N/A   Clear
10:15 PM 64.4 °F 64.4 °F 100% 30.17 in 10.0 mi Calm Calm - N/A   Clear
10:35 PM 64.4 °F 64.4 °F 100% 30.17 in 10.0 mi Calm Calm - N/A   Clear
10:55 PM 64.4 °F 64.4 °F 100% 30.16 in 10.0 mi Calm Calm - N/A   Clear
11:15 PM 62.6 °F 62.6 °F 100% 30.17 in 10.0 mi Calm Calm - N/A   Clear
11:55 PM 62.6 °F 62.6 °F 100% 30.17 in 10.0 mi Calm Calm - N/A   Clear